Regional Weather Roundup
Issued by NWS

Home | Current Version | Previous Version | Text Only | Print | Product List | Glossary Off
Versions: 1 2 3 4 5 6 7 8 9 10 11 12 13 14 15 16 17 18 19 20 21 22 23 24 25 26 27 28 29 30 31 32 33 34 35 36 37 38 39 40 41 42 43 44 45 46 47 48 49 50

000
ASUS43 KLMK 191902
RWRKY
KENTUCKY REGIONAL WEATHER ROUNDUP
NATIONAL WEATHER SERVICE LOUISVILLE KY
300 PM EDT SAT AUG 19 2017

NOTE "FAIR" INDICATES FEW OR NO CLOUDS BELOW 12,000 FEET
WITH NO SIGNIFICANT WEATHER AND/OR OBSTRUCTIONS TO VISIBILITY.

KYZ001>023-026-027-061>063-070>075-192000-
WESTERN AND SOUTH CENTRAL KENTUCKY

CITY           SKY/WX    TMP DP  RH WIND       PRES   REMARKS
PADUCAH        SUNNY     91  68  46 CALM      29.95S HX  95
HENDERSON      SUNNY     86  73  65 SW7       29.96F HX  93
OWENSBORO      MOSUNNY   87  70  56 CALM      29.96S HX  92
HOPKINSVILLE   MOSUNNY   87  71  58 SW5       29.97S HX  92
BOWLING GREEN  SUNNY     88  68  51 W7        29.98F HX  91
GLASGOW        CLOUDY    87  65  48 SW9       29.98F
$$

KYZ024-025-028>034-038-045-046-053-192000-
NORTH CENTRAL KENTUCKY

CITY           SKY/WX    TMP DP  RH WIND       PRES   REMARKS
LOUISVILLE/SDF PTSUNNY   87  68  52 SW10      29.95F HX  90
LOUISVILLE/LOU PTSUNNY   88  69  53 S9        29.96S HX  92
FORT KNOX      PTSUNNY   86  66  51 SW8       29.96S
$$

KYZ035>037-039>044-047>052-055>060-089>105-192000-
NORTHEAST KENTUCKY

CITY           SKY/WX    TMP DP  RH WIND       PRES   REMARKS
LEXINGTON      SUNNY     85  64  49 SW12      29.99F
COVINGTON      PTSUNNY   86  68  54 W12       29.95F
FRANKFORT      MOSUNNY   87  66  49 SW10      29.97S
$$

KYZ054-064>069-076>088-106>120-192000-
SOUTHEAST KENTUCKY

CITY           SKY/WX    TMP DP  RH WIND       PRES   REMARKS
JACKSON        MOSUNNY   85  68  56 CALM      30.02F
LONDON         MOSUNNY   85  65  51 CALM      30.02F
SOMERSET       NOT AVBL
MIDDLESBORO    PTSUNNY   85  66  52 SE3       30.02F
MONTICELLO     CLEAR     86  69  56 W12       30.02F HX  90
$$




USA.gov is the U.S. government's official web portal to all federal, state and local government web resources and services.